Location: Smeeth
(51.1167°N, 0.9667°E)
Time: 01:12:00
(UTC+00:00)

Daily predictions for brighter satellites

Satellite Brightness Start Highest point End
(mag) Time Altitude Azimuth Time Altitude Azimuth Time Altitude Azimuth
Cosmos 2263 Rocket 4.5 03:01:27 20° E 03:01:27 20° E 03:04:19 10° NE
ATLAS 3B R/B 3.5 03:30:34 47° NE 03:30:34 47° NE 03:36:57 10° ESE
ALOS 4.0 03:49:10 10° NNE 03:53:16 30° E 03:53:16 30° E
Cosmos 2227 Rocket 4.2 03:57:13 18° N 03:57:13 18° N 03:58:52 10° NNE
Cosmos 2344 4.4 03:53:01 44° NNW 03:56:21 66° NE 04:08:21 10° ESE
NOSS 3-2 (C) 4.4 04:00:07 52° S 04:00:07 52° S 04:06:41 10° SSE
CENTAUR R/B 3.3 04:01:35 58° SSW 04:01:35 58° SSW 04:08:59 10° SSE
NOSS 3-4 (A) 4.3 04:00:49 40° SSE 04:01:53 44° ESE 04:07:48 10° NE
NOSS 3-4 (C) 4.3 04:00:54 39° SSE 04:02:01 43° ESE 04:07:56 10° NE
SL-4 R/B 4.2 04:15:02 23° E 04:15:02 23° E 04:16:32 10° ENE
Cosmos 1680 Rocket 4.0 04:20:02 56° NE 04:20:26 58° ENE 04:25:41 10° SE
ATLAS 2AS CENTAUR R/B 3.6 04:15:31 18° SSW 04:21:30 54° ESE 04:29:04 10° NE
Cosmos 2297 Rocket 4.1 04:30:31 18° N 04:30:31 18° N 04:32:32 10° NNE
ATLAS 5 CENTAUR R/B 3.6 04:31:18 26° NE 04:31:18 26° NE 04:32:25 10° NE
ATLAS CENTAUR R/B 2.8 04:32:06 33° E 04:32:06 33° E 04:34:36 10° ESE
Lacrosse 5 2.9 04:32:03 37° SSE 04:33:06 42° SE 04:37:52 10° ENE
ADEOS 4.0 04:28:07 10° NNE 04:33:19 59° ESE 04:38:28 10° S
Cosmos 1328 Rocket 4.5 04:35:40 42° SSE 04:35:40 42° SSE 04:38:41 10° SSE
Cosmos 2112 Rocket 4.2 04:38:53 50° N 04:40:15 71° ENE 04:45:35 10° SSE
Gbstr 26 Del rocket 4.2 04:43:33 31° SE 04:43:33 31° SE 04:45:47 10° SE
Cosmos 1745 Rocket 4.4 04:44:18 45° NNW 04:44:18 45° NNW 04:49:08 10° N
Cosmos 2263 Rocket 2.0 04:43:11 75° W 04:43:25 76° WNW 04:49:10 10° NNE
SJ 16-02 1.5 04:45:52 71° ESE 04:45:58 71° ESE 04:50:24 10° NNE
Meteor 1-26 Rocket 4.1 04:48:59 32° NNW 04:51:50 80° W 04:57:28 10° S
Cosmos 1766 Rocket 3.8 04:58:04 58° N 04:58:04 58° N 05:01:45 10° N
FENGYUN 3A 3.5 04:52:48 10° NNE 04:58:15 80° WNW 05:03:39 10° SSW
Cosmos 2082 Rocket 4.3 04:57:54 10° NNW 05:01:49 19° NNE 05:05:53 10° ENE
Cosmos 2181 Rocket 3.8 04:56:47 10° NNW 05:02:59 70° W 05:09:04 10° S
Cosmos 1408 Rocket 3.8 04:58:49 10° S 05:03:15 70° E 05:07:41 10° NNE
USA 307 3.1 05:05:08 57° N 05:05:16 58° N 05:09:33 10° E
Okean 3 Rocket 4.4 05:07:16 36° N 05:07:16 36° N 05:10:01 10° N
COSMO-SKYMED 1 2.4 05:02:35 10° SSE 05:06:56 83° WSW 05:07:59 51° NNW
Cosmos 1709 Rocket 4.0 05:01:48 10° SSW 05:08:05 60° WNW 05:14:25 10° N
USA 308 3.1 05:11:14 55° NNW 05:11:38 58° N 05:15:55 10° E
Lacrosse 4 Rocket 3.3 05:14:32 19° SSW 05:14:32 19° SSW 05:16:08 10° S
Cosmos 1833 Rocket 4.3 05:08:13 12° NNW 05:12:39 29° NE 05:17:31 10° ESE
Meteor 2-3 Rocket 3.6 05:09:34 10° SSW 05:15:18 71° WNW 05:21:07 10° N
CZ-4C R/B 2.6 05:11:05 10° SSW 05:15:57 61° SE 05:21:57 10° NE
CZ-4B R/B 3.4 05:12:21 10° NNE 05:16:53 69° ESE 05:21:16 10° S
MOS 1 Rocket 4.0 05:12:37 10° SSE 05:17:23 59° ENE 05:22:29 10° N
FALCON 9 DEB 4.1 05:18:33 35° S 05:19:06 39° SSE 05:22:08 10° E
Cosmos 1689 Rocket 3.9 05:17:01 10° S 05:18:12 22° S 05:18:12 22° S
ATLAS 3B R/B 2.8 05:17:51 32° WNW 05:21:09 63° SW 05:28:13 10° SSE
COSMOS 2406 4.4 05:18:03 12° NNW 05:22:55 38° NE 05:28:17 10° ESE
SAR-Lupe-4 4.5 05:20:17 10° S 05:22:38 35° SSW 05:22:38 35° SSW
Cosmos 1862 4.0 05:24:02 10° S 05:28:00 56° E 05:32:00 10° NNE
Genesis I 3.9 05:25:00 10° SSW 05:28:42 52° SE 05:32:28 10° NE
deb Chang Zheng 4 3.5 05:26:24 10° N 05:30:42 60° WNW 05:34:59 10° SSW
ALOS 2.6 05:26:27 10° N 05:30:49 40° WNW 05:31:45 36° W
Cosmos 990 Rocket 3.9 05:30:57 10° SSW 05:36:12 82° WNW 05:41:30 10° NNE
Cosmos 2074 Rocket 3.9 05:31:46 10° S 05:37:59 83° W 05:44:15 10° N
METEOR-M 4.3 05:33:07 10° N 05:38:16 49° WNW 05:43:23 10° SW
Cosmos 2227 Rocket 4.0 05:39:03 14° NNW 05:39:21 14° NNW 05:42:11 10° N
Meteor 1-31 Rocket 3.1 05:36:52 10° N 05:40:29 38° WNW 05:40:29 38° WNW
USA 305 3.1 05:38:55 35° WNW 05:40:32 63° N 05:44:49 10° E
Cosmos 405 Rocket 2.9 05:40:05 10° S 05:43:45 70° E 05:47:31 10° NNE
Cosmos 1812 2.6 05:42:51 15° NNW 05:45:57 72° W 05:49:46 10° S
EO 1 Delta rocket 3.8 05:43:16 10° S 05:48:11 69° W 05:52:48 10° NNW
Cosmos 2228 Rocket 3.0 05:44:01 10° NNW 05:48:27 73° W 05:52:50 10° S
Cosmos 1515 Rocket 4.1 05:46:48 24° NW 05:48:53 38° W 05:53:00 10° SSW
USA 306 3.0 05:47:01 30° WNW 05:48:58 65° N 05:53:16 10° E
CENTAUR R/B 4.4 05:48:50 19° W 05:49:57 19° WSW 05:55:33 10° SW
Cosmos 1782 3.9 05:52:15 26° W 05:52:15 26° W 05:55:10 10° SW
SL-4 R/B 1.7 05:50:37 32° W 05:52:20 83° N 05:56:01 10° E
NOSS 3-4 (A) 3.6 05:48:19 19° WSW 05:52:39 54° NW 05:59:05 10° NE
NOSS 3-4 (C) 3.6 05:48:24 18° WSW 05:52:48 55° NW 05:59:13 10° NE
PSLV R/B 4.5 05:49:52 10° SSW 05:53:43 37° W 05:55:47 22° NW
DMSP B5D1-3 4.5 05:49:49 10° S 05:54:57 73° WSW 06:00:09 10° NNW
SKYMED 2 4.4 05:51:26 10° SSW 05:55:13 29° W 05:56:37 24° WNW
Cosmos 2184 Rocket 4.0 05:49:15 10° SSW 05:55:33 67° WNW 06:01:56 10° N
SJ-12 4.3 05:53:56 10° N 05:57:43 38° WNW 06:01:28 10° SW
FALCON 9 DEB 3.0 05:56:59 23° WSW 05:58:50 73° SSE 06:02:02 10° ENE
FALCON 9 DEB 3.2 05:59:52 29° WNW 06:01:31 73° NNE 06:04:59 10° E
Cosmos 1844 Rocket 2.6 05:56:07 10° SSW 06:01:47 81° WNW 06:07:31 10° NNE
Cosmos 1707 Rocket 3.8 06:01:08 10° N 06:05:29 69° ENE 06:09:48 10° SSE
EXPRESS MD2 4.2 06:03:37 21° W 06:06:05 60° SSW 06:13:16 10° ESE
Meteor PRIRODA 4.2 06:05:39 10° N 06:09:08 37° WNW 06:12:35 10° SW
ATLAS CENTAUR R/B 2.4 06:08:18 20° W 06:09:32 24° WSW 06:12:43 10° S
COSMOS 2455 3.5 06:04:00 10° SSW 06:09:55 60° ESE 06:15:52 10° NE
RESURS DK-1 2.5 06:06:03 10° SW 06:10:08 53° NW 06:14:14 10° NNE
NOAA 6 4.2 06:05:42 10° NNE 06:10:52 80° ESE 06:15:59 10° SSW
ADEOS 4.5 06:08:13 10° N 06:12:30 26° WNW 06:16:47 10° WSW
ERBS 3.4 06:11:05 21° NW 06:12:31 29° N 06:15:29 10° ENE
ATLAS 2AS CENTAUR R/B 3.1 06:04:46 10° WSW 06:12:38 58° NW 06:20:16 10° NE
EP 3 3.2 06:11:51 24° SW 06:12:50 80° NW 06:14:44 10° NE
H-2A R/B 2.9 06:09:41 10° N 06:13:31 53° WNW 06:17:18 10° SSW
Cosmos 2297 Rocket 4.2 06:13:11 10° NNW 06:14:23 11° N 06:15:35 10° N
Cosmos 1500 Rocket 3.8 06:11:00 10° SSW 06:15:08 44° WNW 06:19:19 10° N
Cosmos 1844 3.6 06:10:08 10° SW 06:15:41 79° WNW 06:21:20 10° NNE
Lacrosse 5 1.9 06:11:17 12° WSW 06:15:58 65° NNW 06:21:02 10° ENE
CZ-4B DEB 4.2 06:10:31 10° NNE 06:16:01 89° ESE 06:21:30 10° SSW
Cosmos 1437 Rocket 2.8 06:12:22 10° NNW 06:16:06 52° W 06:19:45 10° S
Cosmos 372 Rocket 4.1 06:14:11 10° SSW 06:19:16 81° ESE 06:24:24 10° NNE
Okean O Rocket 2.4 06:15:11 10° NNE 06:19:36 57° ESE 06:23:58 10° S
Uosat 12 SS-18 rocket 4.5 06:16:46 13° NW 06:21:01 85° SW 06:26:44 10° SE
Cosmos 1242 Rocket 3.8 06:17:34 10° N 06:21:04 42° ENE 06:24:33 10° SE
PAYLOAD B 4.3 06:16:54 10° NNE 06:22:28 84° ESE 06:27:58 10° SSW
Geosat 4.1 06:18:12 10° SE 06:23:13 79° ENE 06:28:17 10° NNW
SMAP 3.4 06:18:38 10° NNE 06:23:18 71° ESE 06:27:57 10° S
SJ 16-02 2.7 06:22:57 14° W 06:25:04 19° NW 06:28:16 10° N
USA 81 4.3 06:20:21 10° S 06:25:35 78° E 06:30:54 10° N
Cosmos 2263 Rocket 3.5 06:24:56 13° WNW 06:28:20 21° NW 06:32:40 10° NNE
FALCON 9 DEB 2.9 06:28:58 10° WSW 06:32:10 82° NNW 06:35:24 10° ENE
ATLAS 5 CENTAUR R/B 3.4 06:28:29 10° S 06:32:12 35° ESE 06:36:22 10° ENE
FALCON 9 DEB 2.9 06:29:05 10° WSW 06:32:14 80° NNW 06:35:28 10° ENE
Nadezhda 3 Rocket 4.4 06:27:39 10° NNW 06:33:33 43° W 06:39:21 10° SSW
Sich 1 3.0 06:31:22 10° SSW 06:35:47 68° WNW 06:40:13 10° N
Cosmos 1898 Rocket 4.1 06:30:54 10° WSW 06:35:48 36° NW 06:40:45 10° NNE
CZ-2C R/B 2.7 06:31:34 10° S 06:37:02 73° WSW 06:42:25 10° NNW
AQUARIUS 4.3 06:32:32 10° NNE 06:37:04 85° ESE 06:41:34 10° SSW
H-2A R/B 2.3 06:33:46 10° N 06:37:34 56° WNW 06:41:19 10° SSW
Envisat 3.0 06:32:38 10° N 06:37:39 58° WNW 06:42:37 10° SSW
Cosmos 1743 Rocket 4.5 06:35:27 10° SW 06:39:19 28° WNW 06:43:12 10° N
Cosmos 2366 rocket 4.5 06:34:10 10° S 06:40:25 68° E 06:46:40 10° NNE
CORIOLIS 4.4 06:36:58 10° NNE 06:42:28 80° ESE 06:47:54 10° SSW
COSMO-SKYMED 1 4.5 06:42:43 10° W 06:43:49 11° W 06:44:55 10° WNW
USA 307 3.0 06:41:18 11° WNW 06:45:33 87° SSW 06:49:52 10° ESE
Cosmos 2082 Rocket 2.6 06:41:21 10° NNW 06:47:03 66° ENE 06:52:44 10° SE
CZ-4B R/B 3.2 06:41:59 10° NNE 06:47:21 86° WNW 06:52:46 10° SSW
CZ-4 R/B 3.8 06:46:12 10° NE 06:49:52 28° E 06:53:33 10° SSE
CZ-4B R/B 4.5 06:48:18 10° NNW 06:51:28 19° WNW 06:54:35 10° WSW
Cosmos 1862 Rocket 3.6 06:47:07 10° NNW 06:51:36 80° W 06:56:02 10° S
USA 308 3.0 06:47:34 10° WNW 06:51:54 82° SSW 06:56:12 10° ESE
Cosmos 1937 Rocket 4.1 06:48:03 10° WSW 06:52:46 35° NW 06:57:33 10° NNE
Cosmos 1939 Rocket 3.6 06:48:50 10° NNE 06:52:52 60° E 06:56:56 10° S
FALCON 9 DEB 2.9 06:51:51 10° W 06:55:03 70° NNW 06:58:18 10° ENE
NOSS 7 (E) 4.5 06:52:13 10° WSW 06:55:33 47° NW 06:58:31 10° NE
Cosmos 1833 Rocket 2.8 06:51:28 10° NNW 06:57:05 69° WSW 07:02:38 10° SSE
Cosmos 1269 Rocket 4.4 06:52:09 10° NNW 06:57:27 67° ENE 07:02:42 10° SE
Aureole 2 Rocket 3.0 06:55:41 10° WSW 06:57:40 20° NW 06:59:40 10° N
Cosmos 1805 Rocket 4.3 06:54:21 10° SW 06:58:23 33° WNW 07:02:28 10° N
Meteor 1-27 Rocket 4.4 06:55:16 10° NNW 07:00:26 35° W 07:05:41 10° SSW
